Weather History for Orange, MA

Change the Weather History Date:

Sunday, November 4, 2012

  Actual Average Record
Temperature  
Mean Temperature 37 °F -  
Max Temperature 46 °F 49 °F 69 °F (2005)
Min Temperature 28 °F 29 °F 19 °F (1998)
Degree Days  
Heating Degree Days 28    
Moisture  
Dew Point 29 °F    
Average Humidity 70    
Maximum Humidity 100    
Minimum Humidity 54    
Precipitation  
Precipitation 0.00 in - - ()
Sea Level Pressure  
Sea Level Pressure 29.91 in    
Wind  
Wind Speed 4 mph (NW)    
Max Wind Speed 14 mph    
Max Gust Speed 24 mph    
Visibility 10 miles    
Events      
Averages and records for this station are not official NWS values.
T = Trace of Precipitation, MM = Missing Value Source: NWS Daily Summary

Daily Weather History Graph

Daily Weather History Graph

Search for Another Location

Airport:

Trip Planner

Search our weather history database for the weather conditions in past years. The results will help you decide how hot, cold, wet, or windy it might be!

Date:

Astronomy

Nov. 04, 2012 Rise Set
Actual Time 6:27 AM EST 4:37 PM EST
Civil Twilight 5:57 AM EST 5:07 PM EST
Nautical Twilight 5:24 AM EST 5:40 PM EST
Astronomical Twilight 4:51 AM EST 6:13 PM EST
Moon 9:11 PM EST (11/4) 11:10 AM EST (11/4)
Length of Visible Light 11h 09m
Length of Day
10h 10m
Waning Gibbous, 72% of the Moon is Illuminated
Nov 4
Waning Gibbous
Nov 6
Last Quarter
Nov 13
New
Nov 20
First Quarter
Nov 28
Full

Hourly Weather History & Observations

Time (EST) Temp. Windchill Dew Point Humidity Pressure Visibility Wind Dir Wind Speed Gust Speed Precip Events Conditions
12:52 AM 30.9 °F - 28.9 °F 92% 29.85 in 10.0 mi Calm Calm - N/A   Mostly Cloudy
1:52 AM 35.1 °F - 28.9 °F 78% 29.86 in 10.0 mi Calm Calm - N/A   Scattered Clouds
1:52 AM 33.1 °F - 28.9 °F 85% 29.86 in 10.0 mi Calm Calm - N/A   Mostly Cloudy
2:52 AM 35.1 °F 30.1 °F 28.9 °F 78% 29.86 in 10.0 mi West 5.8 mph - N/A   Clear
3:52 AM 32.0 °F 27.5 °F 28.0 °F 85% 29.87 in 10.0 mi NW 4.6 mph - N/A   Partly Cloudy
4:52 AM 30.9 °F - 28.0 °F 89% 29.88 in 10.0 mi Calm Calm - N/A   Partly Cloudy
5:14 AM 28.4 °F - 28.4 °F 100% 29.87 in 10.0 mi Calm Calm - N/A   Mostly Cloudy
5:52 AM 34.0 °F 28.8 °F 28.9 °F 82% 29.89 in 10.0 mi WNW 5.8 mph - N/A   Overcast
6:52 AM 36.0 °F - 30.0 °F 79% 29.91 in 10.0 mi Calm Calm - N/A   Overcast
7:10 AM 35.6 °F 31.7 °F 30.2 °F 81% 29.90 in 10.0 mi West 4.6 mph - N/A   Scattered Clouds
7:52 AM 37.9 °F 34.4 °F 30.9 °F 76% 29.92 in 10.0 mi WNW 4.6 mph - N/A   Clear
8:52 AM 43.0 °F 37.2 °F 30.9 °F 62% 29.92 in 10.0 mi NW 10.4 mph - N/A   Clear
9:52 AM 45.0 °F 38.5 °F 30.9 °F 58% 29.91 in 10.0 mi NNW 13.8 mph 24.2 mph N/A   Clear
10:52 AM 46.0 °F 41.9 °F 30.9 °F 56% 29.92 in 10.0 mi NW 8.1 mph 18.4 mph N/A   Mostly Cloudy
11:52 AM 46.0 °F 42.5 °F 30.9 °F 56% 29.91 in 10.0 mi NNW 6.9 mph - N/A   Overcast
12:52 PM 46.9 °F - 30.9 °F 54% 29.90 in 10.0 mi NNW 11.5 mph - N/A   Overcast
1:52 PM 45.0 °F 39.3 °F 30.0 °F 56% 29.91 in 10.0 mi NNW 11.5 mph - N/A   Overcast
2:52 PM 42.1 °F 35.2 °F 30.0 °F 62% 29.92 in 10.0 mi North 12.7 mph 18.4 mph N/A   Overcast
3:52 PM 42.1 °F 36.6 °F 28.9 °F 60% 29.93 in 10.0 mi North 9.2 mph - N/A   Overcast
4:52 PM 42.1 °F 38.4 °F 28.9 °F 60% 29.94 in 10.0 mi NNW 5.8 mph - N/A   Overcast
5:52 PM 41.0 °F 39.0 °F 28.9 °F 62% 29.94 in 10.0 mi NNW 3.5 mph - N/A   Overcast
6:52 PM 41.0 °F 39.0 °F 30.0 °F 65% 29.94 in 10.0 mi NW 3.5 mph - N/A   Overcast
7:52 PM 41.0 °F - 28.9 °F 62% 29.94 in 10.0 mi Calm Calm - N/A   Overcast
8:52 PM 39.9 °F 36.7 °F 30.0 °F 68% 29.96 in 10.0 mi NNW 4.6 mph - N/A   Overcast
9:52 PM 39.9 °F 34.5 °F 27.0 °F 60% 29.96 in 10.0 mi NNW 8.1 mph - N/A   Overcast
10:52 PM 39.0 °F 31.8 °F 28.0 °F 65% 29.96 in 10.0 mi NNW 11.5 mph - N/A   Overcast